Tucson, AZ

8:11 PM MST on November 11, 2019 (GMT -0700)
Tucson International

Weather History for KTUS - October, 2019

Change the Weather History Date:

Wednesday, October 23, 2019

  Actual Average Record
Temperature  
Mean Temperature 71 °F 68 °F  
Max Temperature 89 °F 83 °F 96 °F (2017)
Min Temperature 53 °F 55 °F 29 °F (1906)
Degree Days  
Heating Degree Days 0 1  
Month to date heating degree days 0 9  
Since 1 July heating degree days 0 9  
Cooling Degree Days 6 5  
Month to date cooling degree days 226 182  
Year to date cooling degree days 3286 3089  
Growing Degree Days 20 (Base 50)    
Moisture  
Dew Point 25 °F    
Average Humidity 21    
Maximum Humidity 32    
Minimum Humidity 9    
Precipitation  
Precipitation 0.00 in 0.02 in 0.66 in (1896)
Month to date precipitation 0.01 0.71  
Year to date precipitation 10.10 9.91  
Sea Level Pressure  
Sea Level Pressure 29.87 in    
Wind  
Wind Speed 6 mph (SSE)    
Max Wind Speed 14 mph    
Max Gust Speed 20 mph    
Visibility 10 miles    
Events      
T = Trace of Precipitation, MM = Missing Value Source: NWS Daily Summary

Daily Weather History Graph

Daily Weather History Graph

Search for Another Location

Airport or City:

Astronomy

Oct. 23, 2019 Rise Set
Actual Time 6:33 AM MST 5:42 PM MST
Civil Twilight 6:08 AM MST 6:07 PM MST
Nautical Twilight 5:39 AM MST 6:35 PM MST
Astronomical Twilight 5:11 AM MST 7:04 PM MST
Moon 1:21 AM MST (10/23) 3:12 PM MST (10/23)
Length of Visible Light 11h 59m
Length of Day
11h 09m
Waning Crescent, 25% of the Moon is Illuminated
Oct 23
Waning Crescent
Oct 27
New
Nov 4
First Quarter
Nov 12
Full
Nov 19
Last Quarter

Hourly Weather History & Observations

Time (MST) Temp. Dew Point Humidity Pressure Visibility Wind Dir Wind Speed Gust Speed Precip Events Conditions
12:53 AM 57.9 °F 23.0 °F 26% 29.93 in 10.0 mi SE 8.1 mph - N/A   Clear
1:53 AM 57.0 °F 24.1 °F 28% 29.93 in 10.0 mi SSE 6.9 mph - N/A   Clear
2:53 AM 55.0 °F 24.1 °F 30% 29.91 in 10.0 mi SSE 6.9 mph - N/A   Clear
3:53 AM 55.0 °F 23.0 °F 29% 29.90 in 10.0 mi SSE 8.1 mph - N/A   Clear
4:53 AM 54.0 °F 24.1 °F 31% 29.90 in 10.0 mi SSE 8.1 mph - N/A   Clear
5:53 AM 54.0 °F 25.0 °F 33% 29.91 in 10.0 mi SSE 8.1 mph - N/A   Clear
6:53 AM 54.0 °F 25.0 °F 33% 29.92 in 10.0 mi SSE 11.5 mph - N/A   Clear
7:53 AM 59.0 °F 25.0 °F 27% 29.92 in 10.0 mi SSE 10.4 mph - N/A   Clear
8:53 AM 66.0 °F 26.1 °F 22% 29.94 in 10.0 mi SSE 8.1 mph - N/A   Clear
9:53 AM 72.0 °F 27.0 °F 19% 29.93 in 10.0 mi Calm Calm - N/A   Clear
10:53 AM 78.1 °F 26.1 °F 15% 29.91 in 10.0 mi Calm Calm - N/A   Clear
11:53 AM 88.0 °F 28.0 °F 12% 29.87 in 10.0 mi Calm Calm - N/A   Clear
12:53 PM 86.0 °F 24.1 °F 10% 29.84 in 10.0 mi ENE 3.5 mph - N/A   Clear
1:53 PM 86.0 °F 21.9 °F 10% 29.81 in 10.0 mi West 4.6 mph - N/A   Clear
2:53 PM 86.0 °F 21.9 °F 10% 29.80 in 10.0 mi Calm Calm - N/A   Clear
3:53 PM 88.0 °F 21.9 °F 9% 29.79 in 10.0 mi WNW 11.5 mph - N/A   Clear
4:53 PM 86.0 °F 21.9 °F 10% 29.79 in 10.0 mi NNW 9.2 mph - N/A   Clear
5:53 PM 80.1 °F 24.1 °F 13% 29.80 in 10.0 mi NNW 6.9 mph - N/A   Clear
6:53 PM 75.9 °F 25.0 °F 15% 29.82 in 10.0 mi NNW 6.9 mph - N/A   Clear
7:53 PM 75.0 °F 26.1 °F 16% 29.82 in 10.0 mi NNW 6.9 mph - N/A   Clear
8:53 PM 66.9 °F 25.0 °F 21% 29.84 in 10.0 mi Calm Calm - N/A   Clear
9:53 PM 64.9 °F 27.0 °F 24% 29.86 in 10.0 mi South 5.8 mph - N/A   Clear
10:53 PM 64.0 °F 26.1 °F 24% 29.85 in 10.0 mi SE 6.9 mph - N/A   Clear
11:53 PM 62.1 °F 26.1 °F 25% 29.84 in 10.0 mi South 6.9 mph - N/A   Clear